• In Belarus
  • List of Countries
  • For 7 days
  • Water Temperature
  • Satellite Maps
  • Weather Map
  • Weather Widgets
  • user-avatar
    Login

    Hourly Weather Akhaltsikhe

    Today, 16 December, Sunday

    Time Temperature Precipitation Wind Pressure Humidity
    00:00 -1°C° 0 mm 2 mps 653 mmHg 79%
    01:00 -1°C° 0 mm 2 mps 652 mmHg 79%
    02:00 -1°C° 0 mm 2 mps 652 mmHg 80%
    03:00 -1°C° 0 mm 2 mps 652 mmHg 80%
    04:00 -1°C° 0 mm 2 mps 652 mmHg 80%
    05:00 -1°C° 0 mm 2 mps 652 mmHg 80%
    06:00 -1°C° 0 mm 2 mps 652 mmHg 80%
    07:00 +1°C° 0 mm 2 mps 652 mmHg 78%
    08:00 +1°C° 0 mm 2 mps 652 mmHg 76%
    09:00 +2°C° 0 mm 2 mps 652 mmHg 74%
    10:00 +3°C° 0 mm 2 mps 652 mmHg 70%
    11:00 +5°C° 0 mm 2 mps 652 mmHg 67%
    12:00 +7°C° 0 mm 1 mps 652 mmHg 64%
    13:00 +7°C° 0 mm 1 mps 652 mmHg 65%
    14:00 +7°C° 0 mm 1 mps 652 mmHg 66%
    15:00 +7°C° 0 mm 1 mps 651 mmHg 67%
    16:00 +6°C° 0 mm 1 mps 651 mmHg 69%
    17:00 +3°C° 0 mm 2 mps 651 mmHg 71%
    18:00 +2°C° 0 mm 2 mps 651 mmHg 74%
    19:00 +2°C° 0 mm 2 mps 651 mmHg 73%
    20:00 +2°C° 0 mm 2 mps 651 mmHg 73%
    21:00 +2°C° 0 mm 2 mps 651 mmHg 73%
    22:00 +2°C° 0 mm 2 mps 651 mmHg 73%
    23:00 +2°C° 0 mm 2 mps 651 mmHg 73%

    Tomorrow, 17 December, Monday

    Time Temperature Precipitation Wind Pressure Humidity
    00:00 +2°C° 0 mm 2 mps 651 mmHg 74%
    01:00 +2°C° 0 mm 2 mps 651 mmHg 74%
    02:00 +1°C° 0 mm 2 mps 651 mmHg 74%
    03:00 +1°C° 0 mm 2 mps 651 mmHg 74%
    04:00 +1°C° 0 mm 2 mps 650 mmHg 73%
    05:00 +1°C° 0 mm 2 mps 650 mmHg 73%
    06:00 -1°C° 0 mm 2 mps 650 mmHg 73%
    07:00 +1°C° 0 mm 2 mps 650 mmHg 71%
    08:00 +1°C° 0 mm 2 mps 650 mmHg 70%
    09:00 0°C° 0 mm 3 mps 650 mmHg 68%
    10:00 +2°C° 0 mm 3 mps 650 mmHg 66%
    11:00 +4°C° 0 mm 2 mps 649 mmHg 64%
    12:00 +5°C° 0 mm 2 mps 649 mmHg 62%
    13:00 +5°C° 0 mm 2 mps 649 mmHg 63%
    14:00 +5°C° 0 mm 2 mps 649 mmHg 64%
    15:00 +5°C° 0 mm 2 mps 648 mmHg 65%
    16:00 +4°C° 0 mm 2 mps 648 mmHg 68%
    17:00 +3°C° 0 mm 2 mps 648 mmHg 71%
    18:00 +2°C° 0 mm 2 mps 648 mmHg 73%
    19:00 +2°C° 0 mm 2 mps 648 mmHg 74%
    20:00 +1°C° 0 mm 2 mps 648 mmHg 74%
    21:00 +1°C° 0 mm 2 mps 648 mmHg 75%
    22:00 +1°C° 0 mm 2 mps 648 mmHg 75%
    23:00 +1°C° 0 mm 2 mps 648 mmHg 76%

    Day after tomorrow, 18 December, Tuesday

    Time Temperature Precipitation Wind Pressure Humidity
    00:00 +1°C° 0 mm 2 mps 648 mmHg 77%
    01:00 +1°C° 0.1 mm 2 mps 649 mmHg 77%
    02:00 +1°C° 0.1 mm 2 mps 649 mmHg 78%
    03:00 +1°C° 0.1 mm 2 mps 649 mmHg 79%
    04:00 +2°C° 0.1 mm 1 mps 649 mmHg 79%
    05:00 +2°C° 0.1 mm 1 mps 649 mmHg 80%
    06:00 +2°C° 0.1 mm 1 mps 648 mmHg 80%
    07:00 +2°C° 0 mm 1 mps 649 mmHg 79%
    08:00 +2°C° 0 mm 1 mps 649 mmHg 78%
    09:00 +3°C° 0 mm 1 mps 649 mmHg 77%
    10:00 +4°C° 0 mm 1 mps 650 mmHg 74%
    11:00 +5°C° 0 mm 1 mps 650 mmHg 70%
    12:00 +6°C° 0 mm 1 mps 650 mmHg 67%
    13:00 +6°C° 0 mm 1 mps 650 mmHg 67%
    14:00 +6°C° 0 mm 1 mps 650 mmHg 68%
    15:00 +5°C° 0 mm 1 mps 650 mmHg 68%
    16:00 +4°C° 0 mm 1 mps 650 mmHg 72%
    17:00 +3°C° 0 mm 1 mps 650 mmHg 75%
    18:00 +2°C° 0 mm 1 mps 650 mmHg 79%
    19:00 +2°C° 0 mm 1 mps 650 mmHg 78%
    20:00 +1°C° 0 mm 2 mps 650 mmHg 78%
    21:00 -1°C° 0 mm 2 mps 651 mmHg 78%
    22:00 -1°C° 0 mm 2 mps 651 mmHg 78%
    23:00 -1°C° 0 mm 2 mps 651 mmHg 77%

    19 December, Wednesday

    Time Temperature Precipitation Wind Pressure Humidity
    00:00 -1°C° 0 mm 2 mps 651 mmHg 77%
    01:00 -1°C° 0 mm 2 mps 650 mmHg 77%
    02:00 -1°C° 0 mm 2 mps 650 mmHg 76%
    03:00 -1°C° 0 mm 2 mps 650 mmHg 76%
    04:00 -2°C° 0 mm 2 mps 650 mmHg 76%
    05:00 -2°C° 0 mm 2 mps 650 mmHg 76%
    06:00 -2°C° 0 mm 2 mps 650 mmHg 76%
    07:00 -1°C° 0 mm 3 mps 650 mmHg 74%
    08:00 0°C° 0 mm 3 mps 650 mmHg 73%
    09:00 0°C° 0 mm 3 mps 650 mmHg 72%
    10:00 +2°C° 0 mm 3 mps 650 mmHg 69%
    11:00 +3°C° 0 mm 3 mps 650 mmHg 67%
    12:00 +4°C° 0 mm 3 mps 650 mmHg 64%
    13:00 +4°C° 0 mm 3 mps 650 mmHg 65%
    14:00 +4°C° 0 mm 3 mps 650 mmHg 67%
    15:00 +4°C° 0 mm 3 mps 649 mmHg 68%
    16:00 +3°C° 0 mm 3 mps 649 mmHg 71%
    17:00 +2°C° 0 mm 3 mps 649 mmHg 73%
    18:00 +2°C° 0 mm 3 mps 649 mmHg 76%
    19:00 +1°C° 0.1 mm 3 mps 649 mmHg 76%
    20:00 +1°C° 0.1 mm 3 mps 649 mmHg 76%
    21:00 +1°C° 0.1 mm 3 mps 649 mmHg 77%
    22:00 +1°C° 0.1 mm 3 mps 649 mmHg 77%
    23:00 +1°C° 0.1 mm 3 mps 649 mmHg 77%

    20 December, Thursday

    Time Temperature Precipitation Wind Pressure Humidity
    00:00 +1°C° 0.1 mm 3 mps 649 mmHg 77%
    01:00 +1°C° 0.2 mm 3 mps 649 mmHg 78%
    02:00 +1°C° 0.2 mm 3 mps 649 mmHg 78%
    03:00 +1°C° 0.2 mm 3 mps 648 mmHg 78%
    04:00 +1°C° 0.2 mm 3 mps 648 mmHg 79%
    05:00 +2°C° 0.2 mm 2 mps 648 mmHg 79%
    06:00 +2°C° 0.2 mm 2 mps 648 mmHg 80%
    07:00 +2°C° 0.2 mm 2 mps 648 mmHg 80%
    08:00 +2°C° 0.2 mm 2 mps 648 mmHg 80%
    09:00 +2°C° 0.2 mm 2 mps 648 mmHg 80%
    10:00 +3°C° 0.2 mm 2 mps 648 mmHg 78%
    11:00 +4°C° 0.2 mm 1 mps 648 mmHg 77%
    12:00 +5°C° 0.2 mm 1 mps 648 mmHg 76%
    13:00 +5°C° 0.3 mm 1 mps 648 mmHg 78%
    14:00 +5°C° 0.3 mm 1 mps 648 mmHg 81%
    15:00 +5°C° 0.3 mm 1 mps 648 mmHg 83%
    16:00 +4°C° 0.3 mm 1 mps 648 mmHg 85%
    17:00 +3°C° 0.3 mm 1 mps 648 mmHg 88%
    18:00 +3°C° 0.3 mm 1 mps 648 mmHg 91%
    19:00 +3°C° 0.4 mm 1 mps 649 mmHg 91%
    20:00 +3°C° 0.4 mm 1 mps 649 mmHg 92%
    21:00 +3°C° 0.4 mm 1 mps 649 mmHg 92%
    22:00 +2°C° 0.4 mm 1 mps 649 mmHg 93%
    23:00 +2°C° 0.4 mm 1 mps 650 mmHg 93%

    21 December, Friday

    Time Temperature Precipitation Wind Pressure Humidity
    00:00 +2°C° 0.4 mm 1 mps 650 mmHg 94%
    01:00 +2°C° 0.3 mm 1 mps 650 mmHg 94%
    02:00 +2°C° 0.3 mm 1 mps 650 mmHg 94%
    03:00 +2°C° 0.3 mm 1 mps 650 mmHg 94%
    04:00 +2°C° 0.2 mm 1 mps 650 mmHg 94%
    05:00 +1°C° 0.2 mm 1 mps 651 mmHg 94%
    06:00 +1°C° 0.2 mm 1 mps 651 mmHg 94%
    07:00 +1°C° 0.2 mm 1 mps 651 mmHg 93%
    08:00 +2°C° 0.2 mm 1 mps 651 mmHg 92%
    09:00 +2°C° 0.2 mm 1 mps 652 mmHg 92%
    10:00 +2°C° 0.2 mm 1 mps 652 mmHg 90%
    11:00 +1°C° 0.2 mm 2 mps 652 mmHg 88%
    12:00 +2°C° 0.2 mm 2 mps 652 mmHg 87%
    13:00 +2°C° 0.2 mm 2 mps 652 mmHg 87%
    14:00 +2°C° 0.2 mm 2 mps 652 mmHg 88%
    15:00 +2°C° 0.2 mm 2 mps 651 mmHg 88%
    16:00 +1°C° 0.1 mm 2 mps 652 mmHg 90%
    17:00 +2°C° 0.1 mm 1 mps 652 mmHg 92%
    18:00 +1°C° 0.1 mm 1 mps 652 mmHg 94%
    19:00 +1°C° 0.1 mm 1 mps 652 mmHg 94%
    20:00 +1°C° 0.1 mm 1 mps 652 mmHg 94%
    21:00 0°C° 0.1 mm 0 mps 652 mmHg 93%
    22:00 -1°C° 0 mm 0 mps 652 mmHg 93%
    23:00 -1°C° 0 mm 0 mps 652 mmHg 93%
    Show more